Weather History for Chapel Hill, NC

Change the Weather History Date:

Friday, January 24, 2014

  Actual Average Record
Temperature  
Mean Temperature 18 °F -  
Max Temperature 26 °F 50 °F 75 °F (1949)
Min Temperature 10 °F 28 °F 6 °F (1963)
Degree Days  
Heating Degree Days 47    
Moisture  
Dew Point -6 °F    
Average Humidity 36    
Maximum Humidity 51    
Minimum Humidity 21    
Precipitation  
Precipitation 0.00 in - - ()
Sea Level Pressure  
Sea Level Pressure 30.48 in    
Wind  
Wind Speed 7 mph (NW)    
Max Wind Speed 12 mph    
Max Gust Speed 22 mph    
Visibility 10 miles    
Events      
Averages and records for this station are not official NWS values.
T = Trace of Precipitation, MM = Missing Value Source: NWS Daily Summary

Daily Weather History Graph

Daily Weather History Graph

Search for Another Location

Airport:

Trip Planner

Search our weather history database for the weather conditions in past years. The results will help you decide how hot, cold, wet, or windy it might be!

Date:

Astronomy

Jan. 24, 2014 Rise Set
Actual Time 7:22 AM EST 5:34 PM EST
Civil Twilight 6:54 AM EST 6:02 PM EST
Nautical Twilight 6:23 AM EST 6:33 PM EST
Astronomical Twilight 5:53 AM EST 7:03 PM EST
Moon 12:50 AM EST (1/24) 11:50 AM EST (1/24)
Length of Visible Light 11h 07m
Length of Day
10h 12m
Last Quarter, 45% of the Moon is Illuminated
Jan 24
Last Quarter
Jan 30
New
Feb 6
First Quarter
Feb 14
Full
Feb 22
Last Quarter

Hourly Weather History & Observations

Time (EST) Temp. Windchill Dew Point Humidity Pressure Visibility Wind Dir Wind Speed Gust Speed Precip Events Conditions
12:56 AM 18.0 °F 5.4 °F -2.0 °F 41% 30.47 in 10.0 mi North 11.5 mph 18.4 mph N/A   Clear
1:56 AM 17.1 °F 5.8 °F -2.9 °F 41% 30.48 in 10.0 mi WNW 9.2 mph - N/A   Clear
2:56 AM 16.0 °F 4.4 °F -6.0 °F 38% 30.51 in 10.0 mi NW 9.2 mph 21.9 mph N/A   Clear
3:56 AM 15.1 °F 4.2 °F -7.1 °F 37% 30.54 in 10.0 mi NW 8.1 mph 19.6 mph N/A   Clear
4:56 AM 12.9 °F -0.2 °F -6.0 °F 43% 30.56 in 10.0 mi NW 10.4 mph 18.4 mph N/A   Clear
5:56 AM 12.0 °F 1.5 °F -6.0 °F 44% 30.58 in 10.0 mi NW 6.9 mph - N/A   Clear
6:56 AM 10.9 °F 1.4 °F -5.1 °F 49% 30.61 in 10.0 mi NW 5.8 mph - N/A   Clear
7:56 AM 10.9 °F 4.7 °F -4.0 °F 51% 30.63 in 10.0 mi WNW 3.5 mph - N/A   Clear
8:56 AM 12.0 °F -0.4 °F -5.1 °F 46% 30.62 in 10.0 mi NW 9.2 mph - N/A   Clear
9:56 AM 16.0 °F 3.6 °F -5.1 °F 39% 30.62 in 10.0 mi WNW 10.4 mph - N/A   Clear
10:56 AM 19.0 °F 11.1 °F -5.1 °F 34% 30.59 in 10.0 mi NNW 5.8 mph - N/A   Clear
11:56 AM 21.9 °F 15.7 °F -6.0 °F 29% 30.56 in 10.0 mi Variable 4.6 mph - N/A   Clear
12:56 PM 23.0 °F 14.7 °F -8.0 °F 25% 30.51 in 10.0 mi North 6.9 mph - N/A   Clear
1:56 PM 24.1 °F 18.2 °F -9.0 °F 23% 30.49 in 10.0 mi Variable 4.6 mph - N/A   Clear
2:56 PM 26.1 °F 20.5 °F -9.0 °F 21% 30.48 in 10.0 mi Variable 4.6 mph - N/A   Clear
3:56 PM 24.1 °F - -11.0 °F 21% 30.44 in 10.0 mi Calm Calm - N/A   Clear
4:56 PM 24.1 °F 19.7 °F -9.9 °F 22% 30.42 in 10.0 mi Variable 3.5 mph - N/A   Clear
5:56 PM 21.9 °F - -8.0 °F 27% 30.40 in 10.0 mi Calm Calm - N/A   Clear
6:56 PM 19.0 °F - -6.0 °F 33% 30.39 in 10.0 mi Calm Calm - N/A   Clear
7:56 PM 18.0 °F - -5.1 °F 36% 30.37 in 10.0 mi Calm Calm - N/A   Clear
8:56 PM 17.1 °F - -2.0 °F 43% 30.34 in 10.0 mi Calm Calm - N/A   Clear
9:56 PM 18.0 °F - -4.0 °F 38% 30.32 in 10.0 mi Calm Calm - N/A   Clear
10:56 PM 19.0 °F - -4.0 °F 36% 30.29 in 10.0 mi Calm Calm - N/A   Clear
11:56 PM 19.0 °F 13.9 °F -4.0 °F 36% 30.27 in 10.0 mi Variable 3.5 mph - N/A   Clear